Manitowoc, WI

8:10 PM CDT on September 20, 2017 (GMT -0500)
Manitowoc County

Weather History for KMTW - April, 2014

Change the Weather History Date:

Friday, April 11, 2014

  Actual Average Record
Temperature  
Mean Temperature 47 °F -  
Max Temperature 59 °F 49 °F 83 °F (1977)
Min Temperature 37 °F 32 °F 15 °F (1973)
Degree Days  
Heating Degree Days 18    
Moisture  
Dew Point 28 °F    
Average Humidity 51    
Maximum Humidity 89    
Minimum Humidity 28    
Precipitation  
Precipitation 0.00 in - - ()
Sea Level Pressure  
Sea Level Pressure 30.06 in    
Wind  
Wind Speed 6 mph (West)    
Max Wind Speed 14 mph    
Max Gust Speed 18 mph    
Visibility 10 miles    
Events Rain    
Averages and records for this station are not official NWS values.
T = Trace of Precipitation, MM = Missing Value Source: NWS Daily Summary

Daily Weather History Graph

Daily Weather History Graph

Search for Another Location

Airport or City:

Trip Planner

Search our weather history database for the weather conditions in past years. The results will help you decide how hot, cold, wet, or windy it might be!

Date:

Astronomy

Apr. 11, 2014 Rise Set
Actual Time 6:14 AM CDT 7:30 PM CDT
Civil Twilight 5:44 AM CDT 7:59 PM CDT
Nautical Twilight 5:08 AM CDT 8:35 PM CDT
Astronomical Twilight 4:30 AM CDT 9:14 PM CDT
Moon 4:03 PM CDT (4/11) 4:16 AM CDT (4/11)
Length of Visible Light 14h 15m
Length of Day
13h 15m
Waxing Gibbous, 87% of the Moon is Illuminated
Apr 11
Waxing Gibbous
Apr 15
Full
Apr 22
Last Quarter
Apr 29
New
May 6
First Quarter

Hourly Weather History & Observations

Time (CDT) Temp. Windchill Dew Point Humidity Pressure Visibility Wind Dir Wind Speed Gust Speed Precip Events Conditions
12:56 AM 43.0 °F 41.3 °F 21.9 °F 43% 30.01 in 10.0 mi WNW 3.5 mph - N/A   Clear
1:56 AM 45.0 °F 41.8 °F 21.0 °F 39% 30.02 in 10.0 mi NW 5.8 mph - N/A   Clear
2:56 AM 46.0 °F 43.9 °F 21.0 °F 37% 30.01 in 10.0 mi West 4.6 mph - N/A   Clear
3:56 AM 44.1 °F 40.8 °F 21.9 °F 42% 30.01 in 10.0 mi WSW 5.8 mph - N/A   Clear
4:56 AM 43.0 °F 39.5 °F 23.0 °F 45% 30.02 in 10.0 mi West 5.8 mph - N/A   Clear
5:56 AM 43.0 °F 39.5 °F 21.9 °F 43% 30.05 in 10.0 mi WSW 5.8 mph - N/A   Clear
6:56 AM 43.0 °F 39.5 °F 21.0 °F 42% 30.06 in 10.0 mi WSW 5.8 mph - N/A   Clear
7:56 AM 46.9 °F - 23.0 °F 39% 30.07 in 10.0 mi West 9.2 mph - N/A   Clear
8:56 AM 50.0 °F - 26.1 °F 39% 30.07 in 10.0 mi West 11.5 mph - N/A   Clear
9:56 AM 51.1 °F - 27.0 °F 39% 30.07 in 10.0 mi West 8.1 mph - N/A   Overcast
10:56 AM 55.9 °F - 27.0 °F 33% 30.07 in 10.0 mi West 8.1 mph - N/A   Clear
11:56 AM 57.9 °F - 26.1 °F 30% 30.06 in 10.0 mi WSW 11.5 mph - N/A   Partly Cloudy
12:56 PM 57.9 °F - 25.0 °F 28% 30.05 in 10.0 mi West 10.4 mph 18.4 mph N/A   Mostly Cloudy
1:56 PM 55.9 °F - 28.9 °F 36% 30.05 in 10.0 mi West 11.5 mph - N/A   Overcast
2:56 PM 57.0 °F - 30.0 °F 36% 30.04 in 10.0 mi West 13.8 mph 18.4 mph N/A   Mostly Cloudy
3:56 PM 57.0 °F - 30.0 °F 36% 30.04 in 10.0 mi NW 8.1 mph - N/A   Overcast
4:56 PM 55.0 °F - 35.1 °F 47% 30.05 in 10.0 mi North 12.7 mph - 0.00 in Rain Light Rain
5:56 PM 53.1 °F - 39.0 °F 59% 30.04 in 10.0 mi East 9.2 mph - 0.00 in   Mostly Cloudy
6:56 PM 46.9 °F - 37.9 °F 71% 30.06 in 10.0 mi East 8.1 mph - N/A   Clear
7:56 PM 42.1 °F 40.2 °F 37.0 °F 82% 30.07 in 10.0 mi East 3.5 mph - N/A   Clear
8:56 PM 39.0 °F - 35.1 °F 86% 30.09 in 10.0 mi Calm Calm - N/A   Partly Cloudy
9:56 PM 37.0 °F - 34.0 °F 89% 30.11 in 10.0 mi Calm Calm - N/A   Clear
10:56 PM 37.0 °F - 34.0 °F 89% 30.12 in 10.0 mi Calm Calm - N/A   Clear
11:56 PM 37.0 °F - 34.0 °F 89% 30.11 in 10.0 mi Calm Calm - N/A   Clear